| time (UTC) | temp F | wind direction | speed MPH | gust MPH | rain 1hr in | rain 24hr in | rain mn in | humidity % | barometer mb |
| 20260904101549 | 54 | 69 | 0.0 | 4.0 | 0.00 | 0.93 | 0.01 | 91 | 1009.3 |
| 20260904100049 | 54 | 56 | 1.0 | 5.0 | 0.00 | 0.93 | 0.01 | 93 | 1009.4 |
| 20260904094552 | 54 | 30 | 2.0 | 7.0 | 0.00 | 1.14 | 0.01 | 95 | 1009.4 |
| 20260904093047 | 53 | 50 | 0.0 | 4.0 | 0.00 | 1.14 | 0.01 | 95 | 1009.4 |
| 20260904091547 | 52 | 360 | 1.0 | 3.0 | 0.00 | 1.14 | 0.01 | 94 | 1009.2 |
| 20260904090105 | 53 | 0 | 0.0 | 2.0 | 0.00 | 1.14 | 0.01 | 93 | 1009.2 |
| 20260904084558 | 53 | 0 | 0.0 | 2.0 | 0.00 | 1.20 | 0.01 | 93 | 1009.2 |
| 20260904083123 | 54 | 0 | 0.0 | 1.0 | 0.00 | 1.20 | 0.01 | 92 | 1009.2 |
| 20260904081546 | 54 | 136 | 0.0 | 4.0 | 0.00 | 1.20 | 0.01 | 92 | 1009.2 |
| 20260904080052 | 55 | 0 | 0.0 | 4.0 | 0.01 | 1.20 | 0.01 | 92 | 1009.0 |
| 20260904074550 | 55 | 65 | 2.0 | 10.0 | 0.01 | 1.21 | 0.01 | 93 | 1009.1 |
| 20260904073057 | 55 | 67 | 1.0 | 7.0 | 0.01 | 1.21 | 0.01 | 93 | 1008.8 |
| 20260904071601 | 55 | 80 | 1.0 | 7.0 | 0.01 | 1.21 | 0.01 | 94 | 1008.9 |
| 20260904070112 | 55 | 52 | 2.0 | 6.0 | 0.00 | 1.20 | 0.00 | 94 | 1008.9 |
| 20260904064553 | 55 | 69 | 1.0 | 6.0 | 0.00 | 1.20 | 1.20 | 94 | 1009.0 |
| 20260904063100 | 55 | 69 | 2.0 | 8.0 | 0.00 | 1.20 | 1.20 | 95 | 1009.0 |
| 20260904061552 | 55 | 53 | 1.0 | 6.0 | 0.00 | 1.20 | 1.20 | 95 | 1009.1 |
| 20260904060050 | 55 | 82 | 0.0 | 3.0 | 0.00 | 1.20 | 1.20 | 96 | 1009.0 |
| 20260904054551 | 55 | 0 | 0.0 | 2.0 | 0.00 | 1.20 | 1.20 | 96 | 1009.0 |
| 20260904053057 | 55 | 0 | 0.0 | 2.0 | 0.00 | 1.20 | 1.20 | 96 | 1009.2 |
| 20260904051544 | 55 | 0 | 0.0 | 3.0 | 0.00 | 1.20 | 1.20 | 96 | 1009.2 |
| 20260904050049 | 55 | 0 | 0.0 | 1.0 | 0.00 | 1.20 | 1.20 | 95 | 1009.3 |
| 20260904044549 | 55 | 0 | 0.0 | 5.0 | 0.00 | 1.20 | 1.20 | 96 | 1009.2 |
| 20260904043056 | 55 | 60 | 1.0 | 4.0 | 0.00 | 1.20 | 1.20 | 96 | 1009.2 |
| 20260904041546 | 55 | 76 | 0.0 | 4.0 | 0.00 | 1.20 | 1.20 | 96 | 1009.1 |
| 20260904034541 | 55 | 0 | 0.0 | 0.0 | 0.00 | 1.20 | 1.20 | 95 | 1008.9 |
| 20260904033050 | 55 | 0 | 0.0 | 1.0 | 0.00 | 1.20 | 1.20 | 95 | 1008.8 |
| 20260904031555 | 55 | 63 | 0.0 | 2.0 | 0.02 | 1.20 | 1.20 | 95 | 1008.6 |
| 20260904030043 | 56 | 0 | 0.0 | 3.0 | 0.06 | 1.20 | 1.20 | 95 | 1008.5 |
| 20260904024554 | 56 | 0 | 0.0 | 4.0 | 0.07 | 1.20 | 1.20 | 95 | 1008.6 |
| 20260904023049 | 56 | 67 | 1.0 | 4.0 | 0.07 | 1.20 | 1.20 | 95 | 1008.6 |
| 20260904021547 | 57 | 0 | 0.0 | 1.0 | 0.05 | 1.17 | 1.17 | 95 | 1008.7 |
| 20260904020049 | 57 | 0 | 0.0 | 3.0 | 0.03 | 1.14 | 1.14 | 94 | 1008.7 |
| 20260904014557 | 57 | 0 | 0.0 | 2.0 | 0.07 | 1.13 | 1.13 | 94 | 1008.5 |
| 20260904013048 | 58 | 13 | 0.0 | 2.0 | 0.10 | 1.13 | 1.13 | 95 | 1008.5 |
| 20260904011548 | 57 | 271 | 0.0 | 2.0 | 0.10 | 1.13 | 1.13 | 94 | 1008.6 |
| 20260904010050 | 58 | 0 | 0.0 | 2.0 | 0.08 | 1.11 | 1.11 | 94 | 1008.6 |
| 20260904004547 | 58 | 74 | 0.0 | 4.0 | 0.04 | 1.05 | 1.05 | 94 | 1008.4 |
| 20260904003052 | 58 | 0 | 0.0 | 2.0 | 0.03 | 1.03 | 1.03 | 94 | 1008.4 |
| 20260904001551 | 57 | 0 | 0.0 | 4.0 | 0.04 | 1.03 | 1.03 | 94 | 1008.4 |
| 20260904000052 | 57 | 46 | 2.0 | 5.0 | 0.08 | 1.03 | 1.03 | 93 | 1008.7 |
| 20260903234554 | 57 | 0 | 0.0 | 4.0 | 0.07 | 1.01 | 1.01 | 93 | 1008.8 |
| 20260903233053 | 57 | 78 | 0.0 | 3.0 | 0.09 | 1.00 | 1.00 | 93 | 1008.8 |
| 20260903231548 | 57 | 157 | 1.0 | 4.0 | 0.08 | 0.99 | 0.99 | 92 | 1009.0 |
| 20260903230047 | 57 | 204 | 1.0 | 5.0 | 0.09 | 0.95 | 0.95 | 90 | 1008.9 |
| 20260903224547 | 58 | 240 | 2.0 | 7.0 | 0.07 | 0.93 | 0.93 | 88 | 1008.7 |
| 20260903223047 | 59 | 0 | 2.0 | 5.0 | 0.05 | 0.91 | 0.91 | 90 | 1008.9 |
| 20260903221542 | 59 | 198 | 2.0 | 7.0 | 0.05 | 0.91 | 0.91 | 86 | 1008.8 |
| 20260903220051 | 61 | 145 | 3.0 | 15.0 | 0.00 | 0.86 | 0.86 | 78 | 1008.6 |
| 20260903214605 | 63 | 159 | 3.0 | 9.0 | 0.00 | 0.86 | 0.86 | 76 | 1008.4 |
| 20260903213048 | 64 | 123 | 4.0 | 10.0 | 0.00 | 0.86 | 0.86 | 76 | 1008.3 |
| 20260903211602 | 63 | 113 | 2.0 | 10.0 | 0.00 | 0.86 | 0.86 | 80 | 1008.6 |
| 20260903210055 | 62 | 165 | 5.0 | 11.0 | 0.00 | 0.86 | 0.86 | 78 | 1008.7 |
| 20260903204559 | 60 | 186 | 3.0 | 8.0 | 0.00 | 0.89 | 0.86 | 81 | 1008.8 |
| 20260903203050 | 60 | 0 | 1.0 | 6.0 | 0.00 | 0.89 | 0.86 | 87 | 1008.6 |
| 20260903201558 | 59 | 83 | 1.0 | 5.0 | 0.00 | 0.89 | 0.86 | 92 | 1008.5 |
| 20260903200057 | 58 | 0 | 1.0 | 7.0 | 0.00 | 0.89 | 0.86 | 94 | 1008.7 |
| 20260903194556 | 58 | 0 | 1.0 | 12.0 | 0.01 | 1.04 | 0.86 | 96 | 1008.8 |
| 20260903193049 | 56 | 92 | 1.0 | 6.0 | 0.02 | 1.04 | 0.86 | 97 | 1008.7 |
| 20260903191549 | 55 | 80 | 1.0 | 8.0 | 0.02 | 1.04 | 0.86 | 96 | 1009.0 |
| 20260903190048 | 54 | 87 | 0.0 | 5.0 | 0.03 | 1.04 | 0.86 | 97 | 1009.1 |
| 20260903184551 | 54 | 91 | 0.0 | 7.0 | 0.05 | 1.16 | 0.85 | 96 | 1009.3 |
| 20260903183050 | 54 | 0 | 2.0 | 8.0 | 0.11 | 1.16 | 0.84 | 96 | 1009.2 |
| 20260903181547 | 53 | 71 | 2.0 | 5.0 | 0.17 | 1.16 | 0.84 | 96 | 1009.4 |
| 20260903180050 | 53 | 69 | 1.0 | 6.0 | 0.20 | 1.15 | 0.83 | 96 | 1009.5 |
| 20260903174554 | 52 | 86 | 1.0 | 7.0 | 0.23 | 1.23 | 0.80 | 96 | 1009.7 |
| 20260903173049 | 52 | 57 | 1.0 | 6.0 | 0.20 | 1.16 | 0.73 | 96 | 1009.6 |
| 20260903171547 | 53 | 63 | 1.0 | 8.0 | 0.19 | 1.10 | 0.67 | 95 | 1009.5 |
| 20260903170100 | 53 | 67 | 1.0 | 4.0 | 0.22 | 1.05 | 0.63 | 95 | 1009.6 |
| 20260903164549 | 53 | 79 | 0.0 | 4.0 | 0.18 | 1.05 | 0.57 | 95 | 1009.6 |
| 20260903163047 | 54 | 85 | 1.0 | 4.0 | 0.14 | 1.02 | 0.52 | 94 | 1009.6 |
| 20260903161543 | 54 | 0 | 0.0 | 5.0 | 0.08 | 0.96 | 0.47 | 94 | 1009.6 |
| 20260903160048 | 55 | 0 | 0.0 | 6.0 | 0.03 | 0.90 | 0.41 | 94 | 1009.5 |
| 20260903154555 | 55 | 174 | 1.0 | 6.0 | 0.01 | 0.93 | 0.39 | 95 | 1009.5 |
| 20260903153107 | 55 | 188 | 0.0 | 5.0 | 0.01 | 0.93 | 0.39 | 96 | 1008.8 |
| 20260903151551 | 55 | 149 | 0.0 | 8.0 | 0.01 | 0.93 | 0.39 | 96 | 1008.5 |
| 20260903144544 | 55 | 0 | 0.0 | 1.0 | 0.01 | 0.94 | 0.38 | 96 | 1008.4 |
| 20260903143058 | 55 | 0 | 0.0 | 2.0 | 0.02 | 0.94 | 0.38 | 96 | 1008.4 |
| 20260903141552 | 55 | 85 | 1.0 | 3.0 | 0.03 | 0.94 | 0.38 | 96 | 1008.3 |
| 20260903140051 | 55 | 0 | 0.0 | 4.0 | 0.02 | 0.93 | 0.37 | 95 | 1008.4 |
| 20260903134545 | 55 | 0 | 0.0 | 4.0 | 0.03 | 0.94 | 0.37 | 95 | 1008.3 |
| 20260903133055 | 55 | 61 | 0.0 | 1.0 | 0.01 | 0.92 | 0.35 | 95 | 1008.1 |
| 20260903131552 | 55 | 0 | 0.0 | 3.0 | 0.01 | 0.92 | 0.35 | 95 | 1008.1 |
| 20260903130048 | 55 | 0 | 0.0 | 2.0 | 0.00 | 0.91 | 0.34 | 95 | 1008.2 |
| 20260903124549 | 55 | 0 | 0.0 | 4.0 | 0.00 | 0.91 | 0.34 | 94 | 1008.1 |
| 20260903123050 | 55 | 200 | 1.0 | 8.0 | 0.00 | 0.91 | 0.34 | 94 | 1008.2 |
| 20260903121548 | 55 | 164 | 2.0 | 6.0 | 0.03 | 0.91 | 0.34 | 95 | 1008.4 |
| 20260903120051 | 55 | 165 | 0.0 | 4.0 | 0.03 | 0.91 | 0.34 | 94 | 1008.3 |
| 20260903114541 | 55 | 0 | 0.0 | 4.0 | 0.04 | 0.91 | 0.34 | 94 | 1008.5 |
| 20260903113052 | 56 | 0 | 3.0 | 8.0 | 0.04 | 0.91 | 0.34 | 93 | 1008.7 |
| 20260903111555 | 56 | 175 | 3.0 | 9.0 | 0.02 | 0.88 | 0.31 | 93 | 1008.7 |
| 20260903110054 | 56 | 131 | 2.0 | 12.0 | 0.03 | 0.88 | 0.31 | 94 | 1008.5 |
| 20260903104611 | 56 | 158 | 5.0 | 11.0 | 0.12 | 0.87 | 0.30 | 94 | 1008.7 |
| 20260903103101 | 56 | 159 | 5.0 | 13.0 | 0.15 | 0.87 | 0.30 | 94 | 1008.6 |